AirNav   Everest Fuels
 
 1710 users online  

E95 Benson Municipal Airport
Benson, Arizona, USA

GOING TO BENSON?


FAA INFORMATION EFFECTIVE 02 JANUARY 2020

Location

FAA Identifier: E95
Lat/Long: 31-59-58.0000N 110-21-28.7000W
31-59.966667N 110-21.478333W
31.9994444,-110.3579722
(estimated)
Elevation: 3830.9 ft. / 1167.7 m (surveyed)
Variation: 12E (1995)
From city: 3 miles NW of BENSON, AZ
Time zone: UTC -7 (year round; does not observe DST)
Zip code: 85602

Airport Operations

Airport use: Open to the public
Activation date: 11/1999
Control tower: no
ARTCC: ALBUQUERQUE CENTER
FSS: PRESCOTT FLIGHT SERVICE STATION
NOTAMs facility: PRC (NOTAM-D service available)
Attendance: CONTINUOUS
Wind indicator: lighted
Segmented circle: yes
Lights: ACTVT MIRL RY 10/28 - CTAF.
Beacon: white-green (lighted land airport)
Operates sunset to sunrise.

Airport Communications

CTAF/UNICOM: 122.8
WX AWOS-3: 118.475 (520-586-4409)

Nearby radio navigation aids

VOR radial/distance  VOR name  Freq  Var
FHUr347/24.6LIBBY VOR/DME113.6013E
TUSr089/28.9TUCSON VORTAC116.0012E

 
NDB name  Hdg/Dist  Freq  Var  ID
DRAGOO345/24.841013EDAO -.. .- ---

Airport Services

Fuel available: 100LL JET-A
Parking: tiedowns
Airframe service: MAJOR
Powerplant service: MAJOR

Runway Information

Runway 10/28

Dimensions: 4002 x 75 ft. / 1220 x 23 m
Surface: asphalt, in excellent condition
Weight bearing capacity: 
Single wheel: 12.5
Runway edge lights: medium intensity
RUNWAY 10  RUNWAY 28
Latitude: 32-00.027858N31-59.906303N
Longitude: 110-21.858230W110-21.097155W
Elevation: 3830.9 ft.3803.8 ft.
Traffic pattern: leftleft
Runway heading: 089 magnetic, 101 true269 magnetic, 281 true
Markings: basic, in good conditionbasic, in good condition
Visual slope indicator: 2-light PAPI on left (3.00 degrees glide path)2-light PAPI on left (3.00 degrees glide path)
Runway end identifier lights: yesyes
Touchdown point: yes, no lightsyes, no lights
Obstructions: 5 ft. brush, 220 ft. from runway, 4:1 slope to clear
RY 10, 5-8 FT BRUSH 0-200 FT FM THRESHOLD, 105-125 FT RIGHT OF CNTRLN.
8 ft. brush, 235 ft. from runway, 45 ft. left of centerline, 4:1 slope to clear
RY 28, +4-6 FT. BRUSH 0-50 FT. FROM THRESHOLD, 120-125 FT. RIGHT OF CENTERLINE; +4 FT. BRUSH 130 FT. FROM THRESHOLD, 30 FT. LEFT OF CENTERLINE; +3 FT. BRUSH 150 FT. FROM THRESHOLD, 10 FT. LEFT OF CENTERLINE.

Airport Ownership and Management from official FAA records

Ownership: Publicly-owned
Owner: CITY OF BENSON
P.O BOX 2223
BENSON, AZ 85602
Phone 520-586-2245
Manager: BRAD HAMILTON
P.O BOX 2223
BENSON, AZ 85602
Phone 520-586-2245

Airport Operational Statistics

Aircraft based on the field: 38
Single engine airplanes: 32
Multi engine airplanes: 1
Jet airplanes: 2
Helicopters: 1
Ultralights: 2
    
Aircraft operations: avg 67/day *
61% transient general aviation
37% local general aviation
2% military
* for 12-month period ending 15 April 2017

Additional Remarks

RY 10 HAS FOUR 15 FT DITCHES BOTH SIDES OF RY ENDS & WEST HALF OF RY WITH HEADWALLS 130 FT SOUTH OF CENTERLINE.
RY 10, 110 FT TWY EXTENDS FM RY THRESHOLD TO WEST.
LIVESTOCK ON OR INVOF AIRPORT.
ERRATIC WIND CURRENTS .5 NM FM THRESHOLD WHEN WINDS ARE IN EXCESS OF 10 KTS.
FOR CD CTC TUCSON APCH AT 520-829-6121.

Instrument Procedures

There are no published instrument procedures at E95.

Some nearby airports with instrument procedures:

KFHU - Sierra Vista Municipal Airport-Libby Army Airfield (25 nm S)
P33 - Cochise County Airport (28 nm NE)
KDMA - Davis Monthan Air Force Base (29 nm W)
KTUS - Tucson International Airport (30 nm W)
KRYN - Ryan Field Airport (42 nm W)
 
Loc | Ops | Rwys | IFR | FBO | Links
Com | Nav | Svcs | Stats | Notes
Area around E95 (Benson Municipal Airport)
 
Road maps at: MapQuest Bing Google
 
Aerial photo
WARNING: Photo may not be current or correct
Aerial photo of E95 (Benson Municipal Airport)
Photo by Bryan Anderson
Photo taken 11-Nov-2019
looking north-northwest.

Do you have a better or more recent aerial photo of Benson Municipal Airport that you would like to share? If so, please send us your photo.

 
Sectional chart

 
Airport distance calculator
Flying to Benson Municipal Airport? Find the distance to fly.

From to E95

Sunrise and sunset
Times for 21-Jan-2020
 Local
(UTC-7)
 Zulu
(UTC)
Morning civil twilight06:5613:56
Sunrise07:2214:22
Sunset17:4400:44
Evening civil twilight18:1001:10

Current date and time
Zulu (UTC)  21-Jan-2020 18:14:39
Local (UTC-7)  21-Jan-2020 11:14:39
 
METAR
KFHU 
24nm S 
211800Z 10005KT 10SM OVC006 07/06 A3017 RMK AO2A PRESFR SLP191
KDMA 
28nm W 
211756Z AUTO 11007KT 10SM BKN070 BKN130 11/09 A3010 RMK AO2 SLP175 P0001 60030 T01060089 10132 20090 58013 FZRANO $
KTUS 
31nm W 
211753Z 21005KT 10SM BKN075 11/08 A3013 RMK AO2 RAE1658 SLP182 P0000 60032 T01060083 10139 20089 58012
KRYN 
42nm W 
211745Z 17007KT 10SM BKN060 12/08 A3014
KOLS 
43nm SW 
211754Z AUTO 00000KT 10SM SCT002 BKN011 OVC065 08/07 A3017 RMK AO2 RAE08 SLP186 P0000 60030 T00830067 10106 20072 53007
TAF
KFHU 
24nm S 
211333Z 2113/2216 27014KT 9999 OVC030 QNH3010INS BECMG 2114/2115 27014KT 8000 -SHRA OVC010 QNH3015INS TEMPO 2115/2119 27015G25KT BECMG 2119/2120 VRB06KT 9999 VCSH OVC010 QNH3008INS BECMG 2203/2204 VRB06KT 9999 NSW OVC020 QNH3012INS TX12/2121Z TN08/2115Z
KDMA 
28nm W 
211754Z 2117/2220 12009KT 9000 -SHRA BKN060 OVC070 610609 QNH3007INS TEMPO 2117/2122 8000 SHRA BECMG 2200/2201 31009KT 9999 VCSH BKN060 OVC070 610609 QNH3009INS TEMPO 2201/2203 9000 -SHRA BECMG 2203/2204 VRB06KT 9999 NSW SCT070 BKN080 620809 QNH3009INS TX15/2120Z TN07/2213Z
NOTAMs
Click for the latest NOTAMs
NOTAMs are issued by the DoD/FAA and will open in a separate window not controlled by AirNav.

 

 
 

FBO, Fuel Providers, and Aircraft Ground Support

  
 Business Name 
 
 Contact 
 
 Services / Description 
 
Fuel Prices
 
Comments
  
 Southwestern Aviation, LLC
UNICOM 122.80
520-586-3262
[web site]
[email]
Aviation fuel, Aircraft parking (ramp or tiedown), Hangar leasing / sales, Flight training, Aircraft rental, Aviation accessories, Aircraft sales / leasing / brokerage, ...

More info about Southwestern Aviation, LLC
Avfuel
100LL Jet A
FS $4.99 $5.25 
 Updated 08-Jan-2020
 
   60 read write
FS=Full service
Update Fuel Prices
 

Aviation Businesses, Services, and Facilities

  
 Business Name 
 
 Contact 
 
 Services / Description 
 
Distance
 
Comments
  
 Plane Folks, LLC
520-488-3805
520-488-1042
[web site]
[email]
Hangar leasing / sales, Flight training, Aircraft rental, Aerial tours / aerial sightseeing

More info about Plane Folks, LLC
on airport  
   write
 

Would you like to see your business listed on this page?

 If your business provides an interesting product or service to pilots, flight crews, aircraft, or users of the Benson Municipal Airport, you should consider listing it here.  To start the listing process, click on the button below
 
Add a business
 

Other Pages about Benson Municipal Airport

www.cityofbenson.com/index.asp?SEC=2E62F3FA-ABAE-44FB-BA5E-396DC2443B23&Type=B_BASIC
 
Update a link
 
Copyright © AirNav, LLC. All rights reserved. Privacy Policy  Contact